Tracking 19576 objects as of 17-Feb-2019
HD Live streaming from Space Station
objects crossing your sky now

SL-8 R/B

Track SL-8 R/B now!
10-day predictions


NORAD ID: 8924
Int'l Code: 1976-061B
Perigee: 765.1 km
Apogee: 785.3 km
Inclination: 74.1 °
Period: 100.2 minutes
Semi major axis: 7146 km
RCS: 4.7186 m2 (large)
Launch date: June 29, 1976
Source: Commonwealth of Independent States (former USSR) (CIS)
Launch site: PLESETSK MISSILE AND SPACE COMPLEX (PKMTR)

Note: This is a ROCKET BODY
aabbcc
Your satellite tracking list
Your tracking list is empty




NASA's NSSDC Master Catalog

Two Line Element Set (TLE):
1  8924U 76061B   19047.67775949 +.00000096 +00000-0 +41162-4 0  9991
2  8924 074.0569 064.4402 0014179 182.0335 296.7327 14.37106832231063
Source of the keplerian elements: AFSPC